Location: Demmingen
(48.6757°N, 10.4375°E)
Time: 09:57:28
(UTC+00:00)

USA 267 - Pass Details

Date: 22 August 2024
Orbit: 1096 x 1111 km, 123.1° (Epoch: 03 September)

Event Time Altitude Azimuth Distance (km) Brightness Sun altitude
Exits shadow 19:33:22 10° 151° (SSE) 2,927 5.0 -11.8°
Maximum altitude 19:39:33 48° 225° (SW) 1,413 3.9 -12.7°
Drops below altitude 10° 19:45:52 10° 298° (WNW) 2,975 7.0 -13.5°
Sets 19:48:29 0° 304° (NW) 3,938 8.2 -13.9°
